Darstellungsparameter: Aktuell verwendete Einstellungen:
Skalierung der Graphiken ... ?
xyx+y,   Skalierungsfaktor:      Skalierung: Modus: x, Faktor: 1
Darstellungszeitraum ... ?
Vom - - bis: - -   Zeitraum: 17.08.2014 - 17.08.2014
Min/Max/Avg-Anzeige ... ?
Zeige MMA aktuell
Zeige MMA Monat
Zeige MMA alles
Zeige --A aktuell
Zeige --A Monat
Zeige --A alles
Keine MMA-Anzeige
MMA:
Keine MMA-Graphiken
MMA-Basis: 17.08.2014 - 17.08.2014
Quicknavigation für Darstellung... ?
Tage:      1T, 2T, 3T, 5T -1T -2T -3T -5T +1T +2T +3T +5T
Wochen: 1W, 2W, 3W -1W -2W -3W +1W +2W +3W
Monate: 1M, 3M, 6M -1M -3M -6M +1M +3M +6M
Jahre:    1J, 3J, 5J, 10J -1J -3J -5J -10J +1J +3J +5J +10J
Nutze für die Darstellung ... ?
Originaldaten oder Mittelwerte auf ...
Stundenbasis Tagesbasis Wochenbasis
Monatsbasis Jahresbasis      Datenbasis: Original-Daten
Darstellen als:
Statistik (Auto) Statistik J:M      Darstellung:
Zur Graphik,    zurück zur Übersicht aller Sensoren.
 
Tabellarische Datenbersicht: ?
 
Sensor: Nr:Datum:Temp:Feuchte:Taupunkt:
Aussen-T/F 1 17-08-2014 00:00:00 14.6 C 95 % 13.81 C
2 17-08-2014 00:05:00 14.6 C 95 % 13.81 C
3 17-08-2014 00:10:00 14.5 C 94 % 13.55 C
4 17-08-2014 00:15:00 14.6 C 94 % 13.65 C
5 17-08-2014 00:20:00 14.6 C 94 % 13.65 C
6 17-08-2014 00:25:00 14.6 C 93 % 13.48 C
7 17-08-2014 00:30:00 14.6 C 93 % 13.48 C
8 17-08-2014 00:35:00 14.4 C 93 % 13.28 C
9 17-08-2014 00:40:00 14.4 C 93 % 13.28 C
10 17-08-2014 00:45:00 14.4 C 93 % 13.28 C
11 17-08-2014 00:50:00 14.3 C 93 % 13.18 C
12 17-08-2014 00:55:00 14.3 C 93 % 13.18 C
13 17-08-2014 01:00:00 14.2 C 93 % 13.08 C
14 17-08-2014 01:05:00 14.2 C 93 % 13.08 C
15 17-08-2014 01:10:00 14.1 C 93 % 12.99 C
16 17-08-2014 01:15:00 14 C 93 % 12.89 C
17 17-08-2014 01:20:00 13.9 C 94 % 12.95 C
18 17-08-2014 01:25:00 13.8 C 94 % 12.85 C
19 17-08-2014 01:30:00 13.7 C 94 % 12.75 C
20 17-08-2014 01:35:00 13.7 C 94 % 12.75 C
21 17-08-2014 01:40:00 13.7 C 94 % 12.75 C
22 17-08-2014 01:45:00 13.6 C 94 % 12.65 C
23 17-08-2014 01:50:00 13.6 C 94 % 12.65 C
24 17-08-2014 01:55:00 13.6 C 94 % 12.65 C
25 17-08-2014 02:00:00 13.6 C 94 % 12.65 C
Sensor: Nr:Datum:Temp:Feuchte:Taupunkt:
Aussen-T/F 26 17-08-2014 02:05:00 13.5 C 95 % 12.72 C
27 17-08-2014 02:10:00 13.5 C 95 % 12.72 C
28 17-08-2014 02:15:00 13.6 C 95 % 12.81 C
29 17-08-2014 02:20:00 13.6 C 95 % 12.81 C
30 17-08-2014 02:25:00 13.6 C 95 % 12.81 C
31 17-08-2014 02:30:00 13.6 C 95 % 12.81 C
32 17-08-2014 02:35:00 13.6 C 94 % 12.65 C
33 17-08-2014 02:40:00 13.7 C 94 % 12.75 C
34 17-08-2014 02:45:00 13.7 C 94 % 12.75 C
35 17-08-2014 02:50:00 13.7 C 94 % 12.75 C
36 17-08-2014 02:55:00 13.7 C 94 % 12.75 C
37 17-08-2014 03:00:00 13.8 C 94 % 12.85 C
38 17-08-2014 03:05:00 13.7 C 94 % 12.75 C
39 17-08-2014 03:10:00 13.7 C 94 % 12.75 C
40 17-08-2014 03:15:00 13.7 C 94 % 12.75 C
41 17-08-2014 03:20:00 13.8 C 94 % 12.85 C
42 17-08-2014 03:25:00 13.8 C 94 % 12.85 C
43 17-08-2014 03:30:00 13.8 C 94 % 12.85 C
44 17-08-2014 03:35:00 13.9 C 94 % 12.95 C
45 17-08-2014 03:40:00 13.9 C 94 % 12.95 C
46 17-08-2014 03:45:00 13.9 C 94 % 12.95 C
47 17-08-2014 03:50:00 13.9 C 94 % 12.95 C
48 17-08-2014 03:55:00 13.9 C 93 % 12.79 C
49 17-08-2014 04:00:00 13.8 C 93 % 12.69 C
50 17-08-2014 04:05:00 13.8 C 94 % 12.85 C
Sensor: Nr:Datum:Temp:Feuchte:Taupunkt:
Aussen-T/F 51 17-08-2014 04:10:00 13.7 C 94 % 12.75 C
52 17-08-2014 04:15:00 13.7 C 94 % 12.75 C
53 17-08-2014 04:20:00 13.6 C 94 % 12.65 C
54 17-08-2014 04:25:00 13.6 C 95 % 12.81 C
55 17-08-2014 04:30:00 13.6 C 95 % 12.81 C
56 17-08-2014 04:35:00 13.6 C 95 % 12.81 C
57 17-08-2014 04:40:00 13.6 C 95 % 12.81 C
58 17-08-2014 04:45:00 13.6 C 95 % 12.81 C
59 17-08-2014 04:50:00 13.6 C 95 % 12.81 C
60 17-08-2014 04:55:00 13.6 C 95 % 12.81 C
61 17-08-2014 05:00:00 13.6 C 95 % 12.81 C
62 17-08-2014 05:05:00 13.5 C 95 % 12.72 C
63 17-08-2014 05:10:00 13.5 C 95 % 12.72 C
64 17-08-2014 05:15:00 13.5 C 95 % 12.72 C
65 17-08-2014 05:20:00 13.6 C 95 % 12.81 C
66 17-08-2014 05:25:00 13.6 C 95 % 12.81 C
67 17-08-2014 05:30:00 13.6 C 95 % 12.81 C
68 17-08-2014 05:35:00 13.6 C 95 % 12.81 C
69 17-08-2014 05:40:00 13.6 C 95 % 12.81 C
70 17-08-2014 05:45:00 13.5 C 95 % 12.72 C
71 17-08-2014 05:50:00 13.4 C 94 % 12.45 C
72 17-08-2014 05:55:00 13.3 C 95 % 12.52 C
73 17-08-2014 06:00:00 13.4 C 95 % 12.62 C
74 17-08-2014 06:05:00 13.4 C 95 % 12.62 C
75 17-08-2014 06:10:00 13.4 C 95 % 12.62 C
Sensor: Nr:Datum:Temp:Feuchte:Taupunkt:
Aussen-T/F 76 17-08-2014 06:15:00 13.4 C 95 % 12.62 C
77 17-08-2014 06:20:00 13.3 C 95 % 12.52 C
78 17-08-2014 06:25:00 13.2 C 95 % 12.42 C
79 17-08-2014 06:30:00 13.2 C 95 % 12.42 C
80 17-08-2014 06:35:00 13.1 C 95 % 12.32 C
81 17-08-2014 06:40:00 13.1 C 95 % 12.32 C
82 17-08-2014 06:45:00 13.1 C 95 % 12.32 C
83 17-08-2014 06:50:00 13.1 C 95 % 12.32 C
84 17-08-2014 06:55:00 12.9 C 95 % 12.12 C
85 17-08-2014 07:00:00 12.9 C 95 % 12.12 C
86 17-08-2014 07:05:00 12.8 C 95 % 12.02 C
87 17-08-2014 07:10:00 12.8 C 95 % 12.02 C
88 17-08-2014 07:15:00 12.7 C 95 % 11.92 C
89 17-08-2014 07:20:00 12.7 C 95 % 11.92 C
90 17-08-2014 07:25:00 12.7 C 96 % 12.08 C
91 17-08-2014 07:30:00 12.7 C 96 % 12.08 C
92 17-08-2014 07:35:00 12.7 C 96 % 12.08 C
93 17-08-2014 07:40:00 12.7 C 96 % 12.08 C
94 17-08-2014 07:45:00 12.7 C 96 % 12.08 C
95 17-08-2014 07:50:00 12.8 C 96 % 12.18 C
96 17-08-2014 07:55:00 12.8 C 96 % 12.18 C
97 17-08-2014 08:00:00 12.9 C 96 % 12.28 C
98 17-08-2014 08:05:00 13 C 96 % 12.38 C
99 17-08-2014 08:10:00 13.1 C 96 % 12.48 C
100 17-08-2014 08:15:00 13.2 C 95 % 12.42 C
Sensor: Nr:Datum:Temp:Feuchte:Taupunkt:
Aussen-T/F 101 17-08-2014 08:20:00 13.4 C 94 % 12.45 C
102 17-08-2014 08:25:00 13.6 C 93 % 12.49 C
103 17-08-2014 08:30:00 13.8 C 91 % 12.36 C
104 17-08-2014 08:35:00 14 C 89 % 12.22 C
105 17-08-2014 08:40:00 14.3 C 87 % 12.17 C
106 17-08-2014 08:45:00 14.5 C 87 % 12.36 C
107 17-08-2014 08:50:00 14.7 C 88 % 12.73 C
108 17-08-2014 08:55:00 14.7 C 86 % 12.38 C
109 17-08-2014 09:00:00 14.9 C 83 % 12.04 C
110 17-08-2014 09:05:00 15.1 C 85 % 12.6 C
111 17-08-2014 09:10:00 15.2 C 82 % 12.15 C
112 17-08-2014 09:15:00 15.3 C 81 % 12.06 C
113 17-08-2014 09:20:00 15.4 C 81 % 12.16 C
114 17-08-2014 09:25:00 15.5 C 81 % 12.26 C
115 17-08-2014 09:30:00 15.7 C 81 % 12.45 C
116 17-08-2014 09:35:00 15.8 C 80 % 12.36 C
117 17-08-2014 09:40:00 15.8 C 80 % 12.36 C
118 17-08-2014 09:45:00 15.8 C 79 % 12.17 C
119 17-08-2014 09:50:00 15.8 C 78 % 11.97 C
120 17-08-2014 09:55:00 16 C 78 % 12.17 C
121 17-08-2014 10:00:00 16.2 C 79 % 12.56 C
122 17-08-2014 10:05:00 16.3 C 78 % 12.46 C
123 17-08-2014 10:10:00 16.3 C 78 % 12.46 C
124 17-08-2014 10:15:00 16.4 C 78 % 12.56 C
125 17-08-2014 10:20:00 16.4 C 78 % 12.56 C
Sensor: Nr:Datum:Temp:Feuchte:Taupunkt:
Aussen-T/F 126 17-08-2014 10:25:00 16.6 C 77 % 12.55 C
127 17-08-2014 10:30:00 16.7 C 78 % 12.85 C
128 17-08-2014 10:35:00 16.8 C 76 % 12.55 C
129 17-08-2014 10:40:00 16.8 C 76 % 12.55 C
130 17-08-2014 10:45:00 16.9 C 76 % 12.65 C
131 17-08-2014 10:50:00 17 C 73 % 12.13 C
132 17-08-2014 10:55:00 17 C 73 % 12.13 C
133 17-08-2014 11:00:00 17.1 C 73 % 12.23 C
134 17-08-2014 11:05:00 17.2 C 72 % 12.11 C
135 17-08-2014 11:10:00 17.3 C 72 % 12.21 C
136 17-08-2014 11:15:00 17.3 C 72 % 12.21 C
137 17-08-2014 11:20:00 17.3 C 73 % 12.42 C
138 17-08-2014 11:25:00 17.4 C 73 % 12.51 C
139 17-08-2014 11:30:00 17.7 C 70 % 12.16 C
140 17-08-2014 11:35:00 18 C 72 % 12.88 C
141 17-08-2014 11:40:00 18.1 C 69 % 12.33 C
142 17-08-2014 11:45:00 17.9 C 69 % 12.14 C
143 17-08-2014 11:50:00 17.8 C 68 % 11.82 C
144 17-08-2014 11:55:00 17.8 C 68 % 11.82 C
145 17-08-2014 12:00:00 17.8 C 69 % 12.04 C
146 17-08-2014 12:05:00 17.9 C 68 % 11.91 C
147 17-08-2014 12:10:00 17.9 C 67 % 11.69 C
148 17-08-2014 12:15:00 18.2 C 66 % 11.75 C
149 17-08-2014 12:20:00 18.4 C 64 % 11.47 C
150 17-08-2014 12:25:00 18.6 C 63 % 11.42 C
Sensor: Nr:Datum:Temp:Feuchte:Taupunkt:
Aussen-T/F 151 17-08-2014 12:30:00 18.7 C 63 % 11.52 C
152 17-08-2014 12:35:00 18.8 C 65 % 12.09 C
153 17-08-2014 12:40:00 18.9 C 62 % 11.47 C
154 17-08-2014 12:45:00 18.9 C 62 % 11.47 C
155 17-08-2014 12:50:00 18.8 C 62 % 11.37 C
156 17-08-2014 12:55:00 19 C 62 % 11.56 C
157 17-08-2014 13:00:00 19 C 60 % 11.07 C
158 17-08-2014 13:05:00 18.8 C 62 % 11.37 C
159 17-08-2014 13:10:00 18.6 C 63 % 11.42 C
160 17-08-2014 13:15:00 18.4 C 63 % 11.23 C
161 17-08-2014 13:20:00 18.2 C 62 % 10.81 C
162 17-08-2014 13:25:00 18.2 C 62 % 10.81 C
163 17-08-2014 13:30:00 18.1 C 61 % 10.47 C
164 17-08-2014 13:35:00 18.2 C 62 % 10.81 C
165 17-08-2014 13:40:00 18.2 C 64 % 11.28 C
166 17-08-2014 13:45:00 18.3 C 66 % 11.84 C
167 17-08-2014 13:50:00 18.3 C 67 % 12.07 C
168 17-08-2014 13:55:00 18.2 C 64 % 11.28 C
169 17-08-2014 14:00:00 18.1 C 64 % 11.19 C
170 17-08-2014 14:05:00 17.9 C 63 % 10.76 C
171 17-08-2014 14:10:00 17.8 C 62 % 10.43 C
172 17-08-2014 14:15:00 17.8 C 63 % 10.67 C
173 17-08-2014 14:20:00 17.9 C 63 % 10.76 C
174 17-08-2014 14:25:00 18 C 63 % 10.86 C
175 17-08-2014 14:30:00 18 C 63 % 10.86 C
Sensor: Nr:Datum:Temp:Feuchte:Taupunkt:
Aussen-T/F 176 17-08-2014 14:35:00 18 C 65 % 11.33 C
177 17-08-2014 14:40:00 18.1 C 64 % 11.19 C
178 17-08-2014 14:45:00 18.3 C 63 % 11.14 C
179 17-08-2014 14:50:00 18.6 C 62 % 11.18 C
180 17-08-2014 14:55:00 18.6 C 62 % 11.18 C
181 17-08-2014 15:00:00 18.6 C 61 % 10.94 C
182 17-08-2014 15:05:00 18.5 C 63 % 11.33 C
183 17-08-2014 15:10:00 18.3 C 61 % 10.66 C
184 17-08-2014 15:15:00 18 C 61 % 10.37 C
185 17-08-2014 15:20:00 17.9 C 62 % 10.52 C
186 17-08-2014 15:25:00 17.9 C 62 % 10.52 C
187 17-08-2014 15:30:00 18.2 C 62 % 10.81 C
188 17-08-2014 15:35:00 18.2 C 62 % 10.81 C
189 17-08-2014 15:40:00 18.6 C 61 % 10.94 C
190 17-08-2014 15:45:00 18.7 C 61 % 11.03 C
191 17-08-2014 15:50:00 18.8 C 64 % 11.85 C
192 17-08-2014 15:55:00 18.7 C 63 % 11.52 C
193 17-08-2014 16:00:00 18.7 C 62 % 11.28 C
194 17-08-2014 16:05:00 18.7 C 61 % 11.03 C
195 17-08-2014 16:10:00 18.7 C 61 % 11.03 C
196 17-08-2014 16:15:00 18.8 C 62 % 11.37 C
197 17-08-2014 16:20:00 18.8 C 63 % 11.61 C
198 17-08-2014 16:25:00 18.8 C 61 % 11.13 C
199 17-08-2014 16:30:00 18.7 C 61 % 11.03 C
200 17-08-2014 16:35:00 18.6 C 61 % 10.94 C
Sensor: Nr:Datum:Temp:Feuchte:Taupunkt:
Aussen-T/F 201 17-08-2014 16:40:00 18.4 C 60 % 10.5 C
202 17-08-2014 16:45:00 18.6 C 63 % 11.42 C
203 17-08-2014 16:50:00 18.6 C 61 % 10.94 C
204 17-08-2014 16:55:00 18.6 C 61 % 10.94 C
205 17-08-2014 17:00:00 18.6 C 61 % 10.94 C
206 17-08-2014 17:05:00 18.6 C 63 % 11.42 C
207 17-08-2014 17:10:00 18.5 C 61 % 10.84 C
208 17-08-2014 17:15:00 18.4 C 63 % 11.23 C
209 17-08-2014 17:20:00 18.3 C 62 % 10.9 C
210 17-08-2014 17:25:00 18.3 C 62 % 10.9 C
211 17-08-2014 17:30:00 18.2 C 63 % 11.05 C
212 17-08-2014 17:35:00 18.2 C 63 % 11.05 C
213 17-08-2014 17:40:00 18.2 C 62 % 10.81 C
214 17-08-2014 17:45:00 18.2 C 64 % 11.28 C
215 17-08-2014 17:50:00 18.1 C 63 % 10.95 C
216 17-08-2014 17:55:00 18.2 C 65 % 11.52 C
217 17-08-2014 18:00:00 18.2 C 65 % 11.52 C
218 17-08-2014 18:05:00 18.2 C 64 % 11.28 C
219 17-08-2014 18:10:00 18.3 C 67 % 12.07 C
220 17-08-2014 18:15:00 18.3 C 64 % 11.38 C
221 17-08-2014 18:20:00 18.5 C 63 % 11.33 C
222 17-08-2014 18:25:00 18.6 C 62 % 11.18 C
223 17-08-2014 18:30:00 18.6 C 63 % 11.42 C
224 17-08-2014 18:35:00 18.5 C 63 % 11.33 C
225 17-08-2014 18:40:00 18.4 C 63 % 11.23 C
Sensor: Nr:Datum:Temp:Feuchte:Taupunkt:
Aussen-T/F 226 17-08-2014 18:45:00 18.3 C 65 % 11.61 C
227 17-08-2014 18:50:00 18.3 C 64 % 11.38 C
228 17-08-2014 18:55:00 18.3 C 64 % 11.38 C
229 17-08-2014 19:00:00 18.2 C 65 % 11.52 C
230 17-08-2014 19:05:00 18.2 C 70 % 12.64 C
231 17-08-2014 19:10:00 17.9 C 68 % 11.91 C
232 17-08-2014 19:15:00 17.8 C 73 % 12.9 C
233 17-08-2014 19:20:00 17.8 C 67 % 11.6 C
234 17-08-2014 19:25:00 17.8 C 67 % 11.6 C
235 17-08-2014 19:30:00 17.9 C 66 % 11.46 C
236 17-08-2014 19:35:00 17.9 C 68 % 11.91 C
237 17-08-2014 19:40:00 17.9 C 66 % 11.46 C
238 17-08-2014 19:45:00 17.9 C 67 % 11.69 C
239 17-08-2014 19:50:00 17.8 C 73 % 12.9 C
240 17-08-2014 19:55:00 17.6 C 71 % 12.28 C
241 17-08-2014 20:00:00 17.6 C 68 % 11.63 C
242 17-08-2014 20:05:00 17.7 C 72 % 12.59 C
243 17-08-2014 20:10:00 17.6 C 70 % 12.07 C
244 17-08-2014 20:15:00 17.6 C 68 % 11.63 C
245 17-08-2014 20:20:00 17.7 C 67 % 11.5 C
246 17-08-2014 20:25:00 17.7 C 68 % 11.72 C
247 17-08-2014 20:30:00 17.7 C 67 % 11.5 C
248 17-08-2014 20:35:00 17.6 C 69 % 11.85 C
249 17-08-2014 20:40:00 17.6 C 73 % 12.71 C
250 17-08-2014 20:45:00 17.3 C 69 % 11.56 C
Sensor: Nr:Datum:Temp:Feuchte:Taupunkt:
Aussen-T/F 251 17-08-2014 20:50:00 17.3 C 70 % 11.78 C
252 17-08-2014 20:55:00 17.4 C 69 % 11.66 C
253 17-08-2014 21:00:00 17.4 C 68 % 11.44 C
254 17-08-2014 21:05:00 17.4 C 68 % 11.44 C
255 17-08-2014 21:10:00 17.3 C 69 % 11.56 C
256 17-08-2014 21:15:00 17.3 C 70 % 11.78 C
257 17-08-2014 21:20:00 17.2 C 70 % 11.68 C
258 17-08-2014 21:25:00 17.2 C 68 % 11.25 C
259 17-08-2014 21:30:00 17.2 C 69 % 11.47 C
260 17-08-2014 21:35:00 17.1 C 69 % 11.37 C
261 17-08-2014 21:40:00 17.1 C 69 % 11.37 C
262 17-08-2014 21:45:00 17 C 70 % 11.49 C
263 17-08-2014 21:50:00 17 C 69 % 11.28 C
264 17-08-2014 21:55:00 17 C 70 % 11.49 C
265 17-08-2014 22:00:00 16.9 C 69 % 11.18 C
266 17-08-2014 22:05:00 16.8 C 69 % 11.09 C
267 17-08-2014 22:10:00 16.8 C 69 % 11.09 C
268 17-08-2014 22:15:00 16.8 C 69 % 11.09 C
269 17-08-2014 22:20:00 16.8 C 69 % 11.09 C
270 17-08-2014 22:25:00 16.8 C 69 % 11.09 C
271 17-08-2014 22:30:00 16.8 C 68 % 10.87 C
272 17-08-2014 22:35:00 16.8 C 69 % 11.09 C
273 17-08-2014 22:40:00 16.7 C 69 % 10.99 C
274 17-08-2014 22:45:00 16.7 C 69 % 10.99 C
275 17-08-2014 22:50:00 16.7 C 69 % 10.99 C
Sensor: Nr:Datum:Temp:Feuchte:Taupunkt:
Aussen-T/F 276 17-08-2014 22:55:00 16.7 C 70 % 11.21 C
277 17-08-2014 23:00:00 16.7 C 69 % 10.99 C
278 17-08-2014 23:05:00 16.8 C 69 % 11.09 C
279 17-08-2014 23:10:00 16.8 C 69 % 11.09 C
280 17-08-2014 23:15:00 16.8 C 69 % 11.09 C
281 17-08-2014 23:20:00 16.9 C 69 % 11.18 C
282 17-08-2014 23:25:00 16.9 C 69 % 11.18 C
283 17-08-2014 23:30:00 17 C 69 % 11.28 C
284 17-08-2014 23:35:00 16.9 C 69 % 11.18 C
285 17-08-2014 23:40:00 16.9 C 69 % 11.18 C
286 17-08-2014 23:45:00 16.9 C 69 % 11.18 C
287 17-08-2014 23:50:00 17 C 69 % 11.28 C
288 17-08-2014 23:55:00 17 C 69 % 11.28 C

Legende:
   Min
   Max


Maximal/Minimal-Werte vom 17.08.2014 - 17.08.2014

Sensor Min Max Avg
Temp
(Aussen-T/F)
12.7 °C
17-08-2014  07:15:00
19 °C
17-08-2014  12:55:00
16.14 °C
Feuchte
(Aussen-T/F)
60 %
17-08-2014  13:00:00
96 %
17-08-2014  07:25:00
77.52 %
Taupunkt
(Aussen-T/F)
10.37 C
17-08-2014  15:15:00
13.81 C
17-08-2014  00:00:00
11.92 C

Die Daten stammen von einer Davis Vantage Pro 2 Wetter-Station und werden unter Linux mit der Software wview2wettercgi und aufbereitet. Alle Angaben erfolgen ohne Gewähr für ihre Vollständigkeit oder Richtigkeit.
Kontakt: Rainer Krienke krienke@uni-koblenz.de . Meine Webseiten an der Uni Koblenz oder privat.
Version: $Revision: 0.78 $